Regional Weather Roundup
Issued by NWS

Home | Current Version | Previous Version | Text Only | Print | Product List | Glossary Off
Versions: 1 2 3 4 5 6 7 8 9 10 11 12 13 14 15 16 17 18 19 20 21 22 23 24 25 26 27

000
ASUS45 KCYS 210210
RWRWY

WYOMING REGIONAL WEATHER ROUNDUP
NATIONAL WEATHER SERVICE CHEYENNE WY
800 PM MDT THU JUL 20 2017

NOTE:  "FAIR" INDICATES FEW OR NO CLOUDS BELOW 12,000 FEET
WITH NO SIGNIFICANT WEATHER AND/OR OBSTRUCTIONS TO VISIBILITY.

WYZ001-210300-
YELLOWSTONE NATIONAL PARK

CITY           SKY/WX    TMP DP  RH WIND       PRES   REMARKS
LK YELLOWSTONE   N/A     65  53  65 CALM      30.26S
W YELLOWSTONE  NOT AVBL

$$
WYZ002>013-054>058-071-098>099-210300-
NORTHERN WYOMING

CITY           SKY/WX    TMP DP  RH WIND       PRES   REMARKS
JACKSON        CLEAR     68  57  68 CALM      30.17F
CODY           FAIR      74  52  46 SW16      30.03F
GREYBULL       FAIR      73  56  54 VRB6      29.97R
WORLAND        FAIR      69  61  75 SE18      30.01F
SHERIDAN       LGT RAIN  71  61  70 S7        29.96F
BUFFALO        CLOUDY    75  49  39 N10       30.09R
GILLETTE       MOCLDY    81  51  35 N17       29.96R
HULETT         TSTM      68  61  77 SE8       29.99R
NEWCASTLE      FAIR      88  46  23 SE20G30   29.91S

$$
WYZ014>020-022>026-101>103-210300-
CENTRAL WYOMING

CITY           SKY/WX    TMP DP  RH WIND       PRES   REMARKS
BIG PINEY      FAIR      66  56  70 NE6       30.23R
PINEDALE       MOCLDY    64  55  72 CALM      30.24R
DUBOIS         FAIR      63  52  67 NW6       30.23S
LANDER         LGT RAIN  62  58  86 SE18      30.12R FOG
RIVERTON       CLOUDY    67  57  70 E15       30.09F
CASPER         LGT RAIN  70  52  52 N31G41    30.09R
DOUGLAS        FAIR      79  58  48 SE18G28   29.99F

$$
WYZ021-027>030-104>119-210300-
SOUTHERN WYOMING

CITY           SKY/WX    TMP DP  RH WIND       PRES   REMARKS
EVANSTON       FAIR      75  52  44 W12       30.22S
KEMMERER         N/A     77  46  33 W13       30.23R
FORT BRIDGER   FAIR      82  47  29 W18G24    30.22S
ROCK SPRINGS   MOCLDY    83  41  22 SW8       30.16R
RAWLINS        FAIR      81  41  24 W10G20    30.17R
SARATOGA       FAIR      79  45  29 W8        30.21R
LARAMIE        TSTM      65  56  72 SW12      30.27R
CHEYENNE       MOCLDY    80  52  37 S7        30.15R
TORRINGTON     FAIR      82  59  45 SE9       29.95R
PINE BLUFFS    FAIR      77  57  50 S7        30.07F

$$




USA.gov is the U.S. government's official web portal to all federal, state and local government web resources and services.